Location: Archemont
(49.1579°N, 1.7598°E)
Time: 16:01:54
(UTC+00:00)

ATLAS 5 CENTAUR R/B - Pass Details

Date: 03 February 2023
Orbit: 460 x 1178 km, 63.3° (Epoch: 24 March)

Event Time Altitude Azimuth Distance (km) Brightness Sun altitude
Rises 18:31:49 0° 300° (WNW) 2,701 5.8 -16.4°
Reaches altitude 10° 18:34:54 10° 327° (NNW) 1,926 4.4 -16.9°
Maximum altitude 18:37:12 14° 359° (N) 1,773 3.8 -17.3°
Enters shadow 18:39:08 11° 25° (NNE) 2,013 3.9 -17.6°
